#timestamp,LO_Frequency,Hit 
1501383615.5,286047008.8,N
1501383635.4,286047007.9,N
1501383655.2,286047007.7,N
1501383675.0,286047009.1,N
1501383675.9,286047009.1,N
1501383695.8,286047006.9,N
1501383715.6,286047005.0,N
1501383735.4,286047009.2,N
1501383755.3,286047010.6,N
1501383775.1,286047010.8,N
1501383776.0,286047010.8,N
1501383795.8,286047010.8,N
1501383815.6,286047009.0,N
1501383835.5,286047007.3,N
1501383855.3,286047004.9,N
1501383875.1,286047007.0,N
1501383895.9,286047006.6,N
1501383915.7,286047006.2,N
1501383935.5,286047007.2,N
1501383955.4,286047006.4,N
1501383975.2,286047009.2,N
1501383995.0,286047007.7,N
1501383995.9,286047007.7,N
1501384015.8,286047008.2,N
1501384035.6,286047008.0,N
1501384055.4,286047007.8,N
1501384075.3,286047013.4,Y
1501384095.1,286047012.0,N
1501384096.0,286047012.0,N
1501384115.8,286047012.4,N
1501384135.7,286047006.4,N
1501384155.5,286047007.0,N
1501384175.3,286047007.3,N
1501384195.1,286047006.9,N
1501384215.9,286047008.8,N
1501384235.7,286047004.8,N
1501384255.5,286047005.6,N
1501384275.4,286047003.7,N
1501384295.2,286047003.5,N
1501384315.0,286047003.6,N
1501384315.9,286047003.6,N
1501384335.8,286047003.7,N
1501384355.6,286047005.5,N
1501384375.4,286047005.2,N
1501384395.3,286047005.9,N
1501384415.1,286047001.6,N
1501384416.0,286047001.6,N
1501384435.8,286047002.4,N
1501384455.6,286047006.0,N
1501384475.5,286047001.6,N
1501384495.3,286047001.7,N
1501384515.1,286047003.5,N
1501384535.9,286047005.4,N
1501384555.7,286047005.1,N
1501384575.5,286047006.5,N
1501384595.4,286047007.2,N
1501384615.2,286047006.5,N
1501384635.0,286047005.0,N
1501384635.9,286047005.0,N
1501384655.7,286047004.8,N
1501384675.6,286047006.0,N
1501384695.4,286047003.3,N
1501384715.2,286047004.7,N
1501384735.1,286047005.2,N
1501384736.0,286047005.2,N
1501384755.8,286047005.7,N
1501384775.6,286047007.1,N
1501384795.5,286047004.5,N
1501384815.3,286047004.9,N
1501384835.1,286047006.9,N
1501384855.9,286047006.1,N
1501384875.7,286047005.8,N
1501384895.5,286047004.4,N
1501384915.3,286047005.0,N
1501384935.2,286047007.1,N
1501384955.0,286047008.8,N
1501384955.9,286047008.8,N
1501384975.7,286047004.8,N
1501384995.6,286047004.5,N
1501385015.4,286047008.9,N
1501385035.2,286047007.4,N
1501385055.1,286047007.9,N
1501385056.0,286047007.9,N
1501385075.8,286047009.8,N
1501385095.6,286047012.1,Y
1501385115.5,286047003.0,N
1501385135.3,286047002.0,N
1501385155.1,286047003.2,N
1501385175.9,286047004.7,N
1501385195.7,286047003.7,N
1501385215.5,286047000.2,N
1501385235.4,286046998.1,N
1501385255.2,286047002.5,N
1501385275.0,286046999.2,N
1501385275.9,286046999.2,N
1501385295.7,286046999.0,N
1501385315.6,286047000.5,N
1501385335.4,286047000.3,N
1501385355.2,286047000.3,N
1501385375.1,286046999.7,N
1501385376.0,286046999.7,N
1501385395.8,286047004.4,N
1501385415.6,286047000.7,N
1501385435.5,286046998.9,N
1501385455.3,286047000.7,N
1501385475.1,286047002.3,N
1501385495.9,286047002.4,N
1501385515.7,286047000.3,N
1501385535.5,286047001.7,N
1501385555.3,286047003.6,N
1501385575.2,286047002.0,N
1501385595.0,286047004.1,N
1501385595.9,286047004.1,N
1501385615.7,286047001.7,N
1501385635.6,286047001.9,N
1501385655.4,286047002.7,N
1501385675.2,286047002.8,N
1501385695.1,286047002.4,N
1501385696.0,286047002.4,N
1501385715.8,286047002.1,N
1501385735.6,286047001.6,N
1501385755.5,286047003.9,N
1501385775.3,286047003.9,N
1501385795.1,286047005.5,N
1501385815.9,286047003.2,N
1501385835.7,286047005.6,N
1501385855.5,286047003.3,N
1501385875.3,286047003.1,N
1501385895.2,286047003.2,N
1501385915.0,286047007.2,N
1501385915.9,286047007.2,N
1501385935.7,286047007.6,N
1501385955.6,286047003.0,N
1501385975.4,286047003.0,N
1501385995.2,286047003.3,N
1501386015.1,286047001.7,N
1501386016.0,286047001.7,N
1501386035.8,286047002.6,N
1501386055.6,286047002.5,N
1501386075.5,286047002.1,N
1501386095.3,286047003.1,N
1501386115.1,286047005.0,N
1501386135.8,286047003.2,N
1501386155.7,286047003.0,N
1501386175.5,286047007.5,N
1501386195.3,286047003.9,N
1501386215.2,286047004.1,N
1501386235.9,286047003.3,N
1501386255.7,286047004.2,N
1501386275.6,286046999.8,N
1501386295.4,286047000.5,N
1501386315.2,286047002.2,N
1501386335.1,286046999.7,N
1501386336.0,286046999.7,N
1501386355.8,286046999.7,N
1501386375.6,286047000.9,N
1501386395.4,286047000.9,N
1501386415.3,286047000.2,N
1501386435.1,286047002.0,N
1501386455.8,286047005.1,N
1501386475.7,286047006.8,N
1501386495.5,286047006.8,N
1501386515.3,286047008.1,N
1501386535.2,286047008.4,N
1501386555.9,286047006.9,N
1501386575.7,286047007.6,N
1501386595.6,286047005.6,N
1501386615.4,286047005.2,N
1501386635.2,286047007.3,N
1501386655.0,286047007.3,N
1501386655.9,286047007.3,N
1501386675.8,286047007.6,N
1501386695.6,286047006.2,N
1501386715.4,286047008.8,N
1501386735.3,286047007.9,N
1501386755.1,286047011.9,Y
1501386775.8,286047005.4,N
1501386795.7,286047004.0,N
1501386815.5,286047006.0,N
1501386835.3,286047002.0,N
1501386855.2,286047004.4,N
1501386875.9,286047001.9,N
1501386895.7,286047001.9,N
1501386915.6,286046998.7,N
1501386935.4,286047000.6,N
1501386955.2,286046998.2,N
1501386975.0,286047000.4,N
1501386975.9,286047000.4,N
1501386995.8,286046999.0,N
1501387015.6,286046998.9,N
1501387035.4,286047001.6,N
1501387055.3,286047000.6,N
1501387075.1,286047000.9,N
1501387095.8,286047000.7,N
1501387115.7,286046999.8,N
1501387135.5,286047000.2,N
1501387155.3,286047002.4,N
1501387175.2,286047001.6,N
1501387195.9,286047003.9,N
